Back to catalog

STARLINK-11191

AliveCommunicationsVLEO
NORAD 60410·PAYLOAD·🇺🇸 United States

Launched Aug 10, 2024 from Cape Canaveral Space Force Station

Loading…

Next Passes (next 24 hours)

TLE

FreshSource: CelesTrak SupGP

Epoch: Sep 14, 2026, 14:48 UTC

1 60410C 24141N   26257.61715278 -.00024075  00000+0 -19826-3 0  2577
2 60410  53.1574 234.8134 0001179  90.8934  46.5784 15.69728645    12

Track STARLINK-11191 in real time with AllMySat

Download on the App Store